Location: Prague
(50.0830°N, 14.4670°E)
Time: 03:23:00
(UTC+01:00)

BEESAT 2 - Pass Details

Date: 06 December 2021
Orbit: 498 x 513 km, 64.9° (Epoch: 27 January)

Event Time Altitude Azimuth Distance (km) Brightness Sun altitude
Exits shadow 04:42:16 30° 65° (ENE) 945 ? -28.3°
Drops below altitude 10° 04:45:02 10° 105° (ESE) 1,742 ? -27.9°
Sets 04:47:21 0° 115° (ESE) 2,624 ? -27.5°
